[[{"header":{"parameterUnit":"m.s-1","parameterCategory":1,"la1":30.2991,"la2":30.254,"lo1":-89.0895,"lo2":-89.0444,"dy":0.0017,"dx":0.0017,"nx":28,"ny":28,"refTime":"2025-06-09T21:00:00:Z","depth":0,"parameterNumber":2,"parameterNumberName":"U-component_of_WINDS"},"data":[0,0,0,0,0,0,0,0,0,0,0,0,0,0,0,0,0,0,0,0,0,0,0,0,0,0,0,0,0,0,0,0,0,0,0,0,0,0,0,0,0,0,0,0,0,0,0,0,0,0,0,0,0,0,0,0,0,0,3.191,3.1912,0,3.2104,3.2106,3.2108,3.2097,3.2094,3.2091,3.2089,3.2283,3.229,3.2298,0,0,0,0,0,0,0,0,0,0,0,0,0,3.1525,3.1533,3.191,3.1913,3.1915,3.2104,3.2106,3.2109,3.2097,3.2094,3.209,3.2087,3.228,3.2289,3.2299,0,0,0,0,0,0,0,0,0,0,0,0,0,3.1703,3.1535,3.191,3.1932,3.1936,3.2103,3.2106,3.211,3.2098,3.2094,3.209,3.2086,3.2277,3.2288,3.23,3.2456,0,0,3.2336,3.2341,0,0,0,0,0,0,0,0,3.1693,3.1717,3.1926,3.1931,3.1936,3.2072,3.2042,3.2226,3.2099,3.2036,3.2088,3.2084,3.2216,3.2232,3.2278,3.2465,3.2473,3.2337,3.2344,3.2349,3.2352,0,0,0,0,0,0,0,3.1681,3.1709,3.1987,3.1929,3.1935,3.1931,3.1951,3.2077,3.2147,3.2041,3.2041,3.2064,3.2217,3.2266,3.2282,3.2476,3.2336,3.2347,3.2354,3.2358,3.28,3.2805,0,0,0,0,0,0,3.1664,3.1699,3.198,3.1992,3.1802,3.1941,3.1964,3.2032,3.2146,3.2159,3.2068,3.2063,3.2248,3.2268,3.2289,3.2478,3.2349,3.236,3.2366,3.2796,3.2802,3.2807,0,0,0,0,0,0,3.1656,3.1689,3.1973,3.1846,3.1881,3.1952,3.2029,3.2038,3.2087,3.2166,3.2178,3.2105,3.2246,3.2272,3.2415,3.2485,3.2365,3.2375,3.279,3.2798,3.2804,3.2859,0,0,0,0,0,0,3.1645,3.1687,3.1748,3.1847,3.1888,3.2097,3.2033,3.2045,3.2108,3.2104,3.2204,3.2216,3.2245,3.2397,3.2426,3.2499,3.2384,3.2784,3.2793,3.2802,3.2851,3.2867,3.288,0,0,0,0,0,3.1631,3.1754,3.1751,3.1785,3.1966,3.2101,3.2124,3.2155,3.2114,3.2175,3.2225,3.2213,3.2473,3.2412,3.2444,3.2521,3.278,3.2791,3.2801,3.2844,3.2864,3.288,0,0,0,0,0,0,3.1659,3.1768,3.1765,3.1924,3.2004,3.2099,3.2177,3.2175,3.2266,3.2258,3.2292,3.2315,3.2457,3.2504,3.2434,3.2678,3.2621,3.2638,3.2642,3.2661,3.2676,3.2661,3.2394,0,0,0,0,0,3.1685,3.1786,3.1875,3.2007,3.2047,3.2105,3.2165,3.2182,3.2265,3.2298,3.2359,3.2438,3.2537,3.2602,3.2698,3.2858,3.2879,3.2927,3.2942,3.2953,3.2968,3.3055,3.3077,3.2842,3.2842,3.2841,0,0,3.1737,3.1809,3.187,3.2014,3.2078,3.2181,3.2133,3.2244,3.2321,3.2314,3.2452,3.25,3.2591,3.2742,3.2812,3.2785,3.3038,3.2967,3.2976,3.2984,3.3068,3.309,3.311,3.2849,3.2848,3.2846,0,0,3.1884,3.195,3.2067,3.2132,3.2229,3.2267,3.2295,3.2391,3.2422,3.2562,3.2559,3.265,3.282,3.2885,3.294,3.3113,3.3105,3.3143,3.322,3.3304,3.3323,3.3339,3.34,3.3421,3.3158,3.3158,3.3158,0,3.1936,3.2093,3.2126,3.2239,3.2302,3.2303,3.242,3.2481,3.2604,3.2646,3.2615,3.283,3.2891,3.3057,3.3099,3.3144,3.3176,3.3132,3.3318,3.3335,3.3351,3.3409,3.3431,3.3162,3.3161,3.3161,3.3161,0,3.2152,3.2261,3.2343,3.2464,3.2536,3.265,3.2699,3.2768,3.2779,3.282,3.2961,3.3035,3.3145,3.3186,3.3198,3.3355,3.3335,3.3311,3.3253,3.3376,3.3431,3.3454,3.3167,3.3166,3.3165,3.3164,0,0,3.2321,3.246,3.2489,3.2544,3.2652,3.2736,3.2849,3.2959,3.3017,3.3102,3.3197,3.3342,3.332,3.3383,3.3401,3.3476,3.3607,3.3442,3.3445,3.3469,3.3782,3.3799,3.3824,3.3602,3.3607,3.361,3.3774,0,3.2479,3.2683,3.2716,3.2895,3.2995,3.2997,3.3096,3.3172,3.3213,3.3303,3.3348,3.345,3.3414,3.3452,3.3525,3.3575,3.367,3.3564,3.369,3.3694,3.3666,3.3853,3.3872,3.4023,3.3796,3.38,3.3802,0,3.269,3.2782,3.2971,3.3066,3.3109,3.3197,3.33,3.3387,3.3472,3.3497,3.3568,3.3578,3.3694,3.3633,3.3793,3.3721,3.3774,3.3806,3.3813,3.3825,3.3755,3.3869,3.4072,3.4094,3.3837,3.3834,3.3832,0,3.2793,3.2965,3.31,3.3147,3.326,3.3322,3.3372,3.3454,3.3518,3.3607,3.3649,3.375,3.3805,3.3883,3.3919,3.3872,3.4077,3.4019,3.4099,3.4099,3.4142,3.4138,3.4355,3.4178,3.4178,3.4177,3.4177,0,3.2965,3.308,3.3148,3.3231,3.3359,3.3396,3.3522,3.357,3.3643,3.3733,3.3741,3.3826,3.387,3.3961,3.399,3.4118,3.4143,3.4165,3.4171,3.4164,3.4161,3.4199,3.4189,3.4183,3.4182,3.4181,3.418,0,3.3102,3.3152,3.3299,3.3396,3.3422,3.3513,3.3594,3.3674,3.3715,3.383,3.3859,3.3923,3.4031,3.4075,3.4207,3.4226,3.4373,3.4371,3.4344,3.4346,3.4423,3.4415,3.4671,3.4705,3.4507,3.4509,3.451,0,3.3208,3.3297,3.3403,3.3466,3.3518,3.3618,3.3684,3.3723,3.3791,3.3895,3.3962,3.407,3.4159,3.433,3.4387,3.4488,3.4488,3.4571,3.4503,3.4493,3.4488,3.4482,3.449,3.4583,3.4585,3.4586,3.4588,0,3.339,3.341,3.3506,3.361,3.3689,3.3772,3.3854,3.3904,3.3955,3.4031,3.4142,3.4211,3.4346,3.4452,3.4556,3.4605,3.4605,3.4609,3.4632,3.4625,3.4605,3.4616,3.4377,3.4602,3.4601,3.46,3.4599,3.4598,3.3513,3.3593,3.368,3.3786,3.3852,3.3928,3.4008,3.406,3.4153,3.4268,3.4285,3.4403,3.4486,3.4626,3.4679,3.4771,3.475,3.4785,3.4793,3.4801,3.4806,3.4592,3.479,3.479,3.479,3.4789,3.4789,0,3.3695,3.3752,3.3849,3.3964,3.4047,3.4042,3.4131,3.42,3.4305,3.4383,3.4471,3.4598,3.4701,3.4767,3.4871,3.4932,3.4934,3.4958,3.4953,3.4964,3.4819,3.4788,3.4954,3.4954,3.4954,3.4954,3.4954,3.4954,3.3799,3.3933,3.3964,3.4129,3.4185,3.4303,3.4354,3.4424,3.4487,3.4629,3.4716,3.4759,3.4832,3.4941,3.5035,3.5052,3.5089,3.5114,3.5129,3.4992,3.4975,3.4958,3.4929,3.5122,3.5122,3.5266,3.5268,3.5269]},{"header":{"parameterUnit":"m.s-1","parameterCategory":1,"la1":30.2991,"la2":30.254,"lo1":-89.0895,"lo2":-89.0444,"dy":0.0017,"dx":0.0017,"nx":28,"ny":28,"refTime":"2025-06-09T21:00:00:Z","depth":0,"parameterNumber":3,"parameterNumberName":"V-component_of_WINDS"},"data":[0,0,0,0,0,0,0,0,0,0,0,0,0,0,0,0,0,0,0,0,0,0,0,0,0,0,0,0,0,0,0,0,0,0,0,0,0,0,0,0,0,0,0,0,0,0,0,0,0,0,0,0,0,0,0,0,0,0,4.9039,4.9041,0,4.9223,4.9225,4.9227,4.9283,4.9283,4.9282,4.9281,4.946,4.9465,4.9471,0,0,0,0,0,0,0,0,0,0,0,0,0,4.8728,4.8733,4.9039,4.9041,4.9043,4.9223,4.9225,4.9228,4.9284,4.9283,4.9281,4.928,4.9458,4.9465,4.9471,0,0,0,0,0,0,0,0,0,0,0,0,0,4.8882,4.8735,4.9038,4.9093,4.91,4.9222,4.9226,4.9229,4.9284,4.9283,4.9281,4.928,4.9456,4.9464,4.9472,4.9551,0,0,4.9498,4.9502,0,0,0,0,0,0,0,0,4.8873,4.8893,4.9083,4.909,4.9097,4.9229,4.9182,4.9336,4.9284,4.9214,4.9281,4.9279,4.9384,4.9398,4.9435,4.9559,4.9567,4.9499,4.9504,4.9507,4.951,0,0,0,0,0,0,0,4.8863,4.8886,4.9111,4.9085,4.9094,4.9106,4.9127,4.9211,4.9303,4.922,4.9224,4.9246,4.9387,4.9427,4.944,4.9569,4.9498,4.9506,4.9511,4.9514,4.9768,4.977,0,0,0,0,0,0,4.8844,4.8877,4.9106,4.9117,4.898,4.9113,4.9136,4.9188,4.9303,4.9319,4.9247,4.9248,4.9413,4.943,4.9446,4.9546,4.9507,4.9515,4.952,4.9767,4.9769,4.9771,0,0,0,0,0,0,4.8837,4.8864,4.9098,4.8998,4.9029,4.912,4.9178,4.9192,4.9232,4.9324,4.9339,4.9271,4.9413,4.9434,4.9525,4.9553,4.9519,4.9527,4.9765,4.9767,4.977,4.9746,0,0,0,0,0,0,4.8828,4.8861,4.8893,4.8999,4.9034,4.9176,4.918,4.9197,4.9248,4.9251,4.935,4.9365,4.9413,4.9513,4.9534,4.9564,4.9533,4.9763,4.9766,4.9769,4.9745,4.9748,4.975,0,0,0,0,0,4.8816,4.8877,4.8894,4.8922,4.9077,4.9178,4.9198,4.9255,4.925,4.9282,4.9341,4.9362,4.9547,4.9521,4.9546,4.9579,4.9761,4.9765,4.9769,4.9744,4.9747,4.975,0,0,0,0,0,0,4.8767,4.8891,4.8912,4.9009,4.9083,4.9187,4.9229,4.9256,4.9331,4.933,4.9395,4.9417,4.9503,4.955,4.9519,4.9662,4.9655,4.9664,4.9627,4.9631,4.9634,4.962,4.954,0,0,0,0,0,4.8769,4.8843,4.8946,4.9022,4.9058,4.9138,4.9183,4.9222,4.9299,4.933,4.9395,4.9468,4.9542,4.959,4.9663,4.9753,4.9775,4.9788,4.979,4.9792,4.9798,4.985,4.9857,4.9783,4.9783,4.9783,0,0,4.877,4.8847,4.889,4.9014,4.9076,4.9149,4.9163,4.924,4.9294,4.934,4.9431,4.9482,4.9567,4.9658,4.9701,4.97,4.9824,4.9797,4.9798,4.9803,4.9854,4.9861,4.9867,4.9786,4.9786,4.9785,0,0,4.8811,4.8877,4.8948,4.9011,4.9106,4.9159,4.9176,4.9278,4.9314,4.9408,4.9444,4.9509,4.9636,4.9696,4.9742,4.981,4.9831,4.9832,4.9844,4.9894,4.9899,4.9905,4.9928,4.9936,4.9838,4.9838,4.9838,0,4.88,4.8915,4.898,4.9057,4.911,4.916,4.9231,4.9288,4.94,4.9435,4.9433,4.9596,4.9656,4.9762,4.9779,4.9815,4.9835,4.9819,4.9894,4.99,4.9906,4.9929,4.9937,4.9837,4.9837,4.9837,4.9837,0,4.8897,4.8977,4.9022,4.9134,4.9193,4.9266,4.934,4.9391,4.9425,4.9477,4.9571,4.9647,4.9737,4.9765,4.9797,4.9876,4.9873,4.9882,4.9875,4.9911,4.9934,4.9943,4.9836,4.9837,4.9837,4.9837,0,0,4.8909,4.906,4.9075,4.9127,4.9238,4.9299,4.9374,4.9467,4.9509,4.9585,4.9649,4.9757,4.9768,4.982,4.986,4.9903,4.9952,4.9907,4.991,4.9912,5.0043,5.0035,5.0044,4.9968,4.997,4.9972,5.0036,0,4.8963,4.9103,4.9165,4.9276,4.935,4.94,4.9466,4.9539,4.9591,4.9659,4.9715,4.9791,4.9799,4.9831,4.9877,4.9936,4.9979,4.9933,5.0025,5.0028,5.0001,5.0056,5.0047,5.0104,5.0045,5.0047,5.0048,0,4.9044,4.9126,4.9245,4.9349,4.9382,4.9441,4.9531,4.9597,4.9681,4.9716,4.9777,4.9815,4.9894,4.9885,4.9994,4.9962,5.0003,5.0039,5.0042,5.0051,5.0039,5.0065,5.0123,5.0131,5.0062,5.0061,5.006,0,4.904,4.918,4.927,4.9313,4.9436,4.9476,4.9529,4.9612,4.9665,4.9743,4.9777,4.9862,4.9908,4.9972,5.0032,5.002,5.0135,5.013,5.0164,5.0162,5.0184,5.0182,5.0248,5.0213,5.0213,5.0213,5.0213,0,4.9093,4.9164,4.927,4.9325,4.9406,4.9476,4.9553,4.9609,4.9684,4.9749,4.9796,4.9856,4.9932,5.0001,5.0048,5.0131,5.0151,5.018,5.0191,5.0175,5.0171,5.0201,5.0198,5.0215,5.0215,5.0214,5.0214,0,4.9101,4.9176,4.9277,4.9388,4.9417,4.9471,4.9564,4.9619,4.9675,4.9757,4.978,4.9866,4.9949,5.0017,5.0124,5.0156,5.0243,5.0256,5.0215,5.0221,5.025,5.0246,5.0337,5.0353,5.0308,5.0309,5.0309,0,4.913,4.9186,4.9304,4.9353,4.9407,4.9485,4.954,4.9611,4.9666,4.9768,4.981,4.9898,4.9972,5.0103,5.0173,5.0256,5.0271,5.0297,5.0283,5.0266,5.027,5.0266,5.0271,5.0298,5.0298,5.0298,5.0298,0,4.9172,4.9207,4.9286,4.9379,4.9445,4.952,4.9596,4.9633,4.9718,4.9777,4.9865,4.9923,5.0036,5.0122,5.0213,5.0265,5.0295,5.0303,5.0315,5.0298,5.0272,5.0285,5.0218,5.0299,5.0299,5.0299,5.0299,5.0299,4.9191,4.9244,4.9336,4.9423,4.9489,4.956,4.9618,4.9683,4.9759,4.9859,4.9896,4.9986,5.007,5.0196,5.0249,5.0319,5.0321,5.0338,5.0342,5.0345,5.0343,5.0262,5.0335,5.0335,5.0336,5.0336,5.0336,0,4.9235,4.9298,4.9378,4.9486,4.9554,4.9582,4.9668,4.9722,4.9803,4.988,4.9954,5.0055,5.014,5.0219,5.0307,5.0348,5.0364,5.0368,5.0365,5.0376,5.0336,5.0317,5.0354,5.0354,5.0354,5.0354,5.0354,5.0354,4.9266,4.9358,4.9404,4.9529,4.9591,4.9683,4.973,4.9795,4.9858,4.9971,5.0043,5.0095,5.0173,5.0268,5.0346,5.0367,5.0396,5.0396,5.042,5.0381,5.0379,5.0376,5.0358,5.0403,5.0403,5.0454,5.0455,5.0455]}]]